Location: Bremen
(53.0793°N, 8.8017°E)
Time: 00:22:47
(UTC+01:00)

Vanguard 1 Rocket - Pass Details

Date: 10 December 2021
Orbit: 651 x 4225 km, 34.3° (Epoch: 26 January)

Event Time Altitude Azimuth Distance (km) Brightness Sun altitude
Rises 07:15:27 0° 266° (W) 5,811 - -10.0°
Exits shadow 07:16:19 - 264° (W) 5,699 10.9 -9.9°
Reaches altitude 10° 07:20:00 10° 253° (WSW) 5,331 10.9 -9.4°
Maximum altitude 07:31:35 23° 209° (SSW) 5,396 11.3 -7.8°
Drops below altitude 10° 07:47:16 10° 169° (SSE) 7,286 12.7 -5.8°
Sets 07:55:27 0° 157° (SSE) 8,459 13.4 -4.7°
